"2009-06-03 00:00:00",942068,4.516,117.5,8.85,1.225,7.67,102.4511,5.555,6.747,93.9,0,110,13.47,6.33,79.5
"2009-06-03 00:00:30",942069,4.475,119.9,8.29,1.191,7.322,102.4497,5.552,6.724,93.9,0,109.9,13.47,6.32,81.9
"2009-06-03 00:01:00",942070,4.623,120.4,8.93,1.245,8.04,102.4489,5.55,6.77,93.9,0,110,13.47,6.32,82.4
"2009-06-03 00:01:30",942071,4.219,120.6,6.992,1.042,7.089,102.4492,5.55,6.748,93.9,0,109.9,13.47,6.32,82.6
"2009-06-03 00:02:00",942072,5.671,130.3,8.88,1.223,9.72,102.4478,5.547,6.849,94,0,110,13.47,6.32,92.3
"2009-06-03 00:02:30",942073,5.697,135,10.98,1.12,9.53,102.4466,5.544,6.79,94,0,110,13.47,6.32,97.0
"2009-06-03 00:03:00",942074,5.055,117.7,10.64,1.253,8.07,102.4486,5.549,6.727,93.9,0,110,13.47,6.32,79.7
"2009-06-03 00:03:30",942075,3.812,119.4,5.513,0.911,6.77,102.4501,5.553,6.729,93.9,0,110,13.47,6.32,81.4
"2009-06-03 00:04:00",942076,3.486,121.7,3.681,1.014,6.805,102.4458,5.542,6.729,93.9,0,110,13.48,6.31,83.7
"2009-06-03 00:04:30",942077,5.166,113.9,9.84,1.386,7.928,102.4396,5.526,6.675,93.9,0,110,13.47,6.30,75.9
"2009-06-03 00:05:00",942078,5.268,125.5,7.432,1.286,9.7,102.4399,5.527,6.833,94.1,0,110,13.47,6.30,87.5
"2009-06-03 00:05:30",942079,4.788,134.9,6.359,1.08,9.29,102.441,5.529,6.788,94,0,109.9,13.47,6.30,96.9
"2009-06-03 00:06:00",942080,3.216,117.1,4.903,0.89,6.865,102.4447,5.539,6.734,94,0,110,13.48,6.31,79.1
"2009-06-03 00:06:30",942081,3.271,121.8,6.321,1.116,6.773,102.4483,5.548,6.633,93.9,0,109.9,13.48,6.32,83.8
"2009-06-03 00:07:00",942082,3.419,124.6,4.714,0.79,6.738,102.4495,5.551,6.67,94,0,109.9,13.48,6.32,86.6
"2009-06-03 00:07:30",942083,4.603,128.3,7.463,1.282,8.27,102.4498,5.552,6.731,94.1,0,110,13.48,6.32,90.3
"2009-06-03 00:08:00",942084,4.804,124.3,6.808,1.307,8.89,102.4518,5.557,6.825,94.3,0,109.9,13.48,6.33,86.3
"2009-06-03 00:08:30",942085,5.096,127.6,7.845,1.137,9.87,102.4498,5.552,6.855,94.3,0,109.9,13.48,6.32,89.6
"2009-06-03 00:09:00",942086,4.506,119.7,7.884,1.187,7.924,102.4419,5.532,6.76,94.2,0,109.9,13.48,6.30,81.7
"2009-06-03 00:09:30",942087,4.494,116.3,6.258,1.208,7.769,102.4306,5.503,6.722,94.2,0,109.9,13.48,6.27,78.3
"2009-06-03 00:10:00",942088,3.733,115.6,5.404,0.941,6.539,102.4278,5.496,6.686,94.1,0,109.9,13.48,6.27,77.6
"2009-06-03 00:10:30",942089,3.921,116.7,6.568,1.149,6.772,102.4281,5.496,6.596,94,0,109.9,13.47,6.27,78.7
"2009-06-03 00:11:00",942090,4.649,121.1,6.977,1.317,8.65,102.4284,5.497,6.788,94.2,0,109.9,13.47,6.27,83.1
"2009-06-03 00:11:30",942091,4.895,123.4,6.684,1.118,9.75,102.4318,5.506,6.797,94.2,0,109.9,13.47,6.28,85.4
"2009-06-03 00:12:00",942092,4.448,117.7,7.451,1.279,8.44,102.4313,5.505,6.771,94.2,0,109.9,13.47,6.28,79.7
"2009-06-03 00:12:30",942093,3.974,119.4,6.419,1.234,7.839,102.4301,5.502,6.652,94,0,109.9,13.47,6.27,81.4
"2009-06-03 00:13:00",942094,4.006,120.2,7.068,1.231,7.511,102.4293,5.499,6.692,94.1,0,109.9,13.47,6.27,82.2
"2009-06-03 00:13:30",942095,4.228,121.8,7.391,1.165,7.284,102.421,5.478,6.686,94.1,0,109.9,13.47,6.25,83.8
"2009-06-03 00:14:00",942096,4.058,121,5.302,1.078,6.679,102.4182,5.471,6.57,94,0,109.9,13.47,6.24,83.0
"2009-06-03 00:14:30",942097,5.324,129.8,5.235,1.165,10.15,102.4061,5.44,6.857,94.2,0,109.9,13.47,6.21,91.8
"2009-06-03 00:15:00",942098,5.366,126,6.363,1.076,10.23,102.3968,5.416,6.756,94.1,0,109.9,13.47,6.19,88.0
"2009-06-03 00:15:30",942099,4.76,117.7,6.298,1.23,9.07,102.3962,5.415,6.764,94.1,0,109.9,13.47,6.19,79.7
"2009-06-03 00:16:00",942100,4.084,109.8,5.742,1.002,6.865,102.3971,5.417,6.583,93.9,0,109.9,13.47,6.19,71.8
"2009-06-03 00:16:30",942101,4.691,116.7,5.701,1.313,7.571,102.3959,5.414,6.561,93.8,0,109.9,13.48,6.19,78.7
"2009-06-03 00:17:00",942102,4.232,118.4,7.599,1.182,8.1,102.3976,5.419,6.641,93.9,0,109.9,13.48,6.19,80.4
"2009-06-03 00:17:30",942103,4.025,119,8.04,1.17,7.491,102.3979,5.419,6.585,93.8,0,109.9,13.48,6.19,81.0
"2009-06-03 00:18:00",942104,5.124,126.3,5.891,1.188,9.47,102.3988,5.422,6.726,94,0,109.9,13.48,6.19,88.3
"2009-06-03 00:18:30",942105,4.57,126.1,6.442,1.231,8.49,102.3982,5.42,6.594,93.8,0,109.9,13.48,6.19,88.1
"2009-06-03 00:19:00",942106,3.876,121.5,6.69,0.92,6.534,102.3976,5.419,6.526,93.8,0,109.9,13.48,6.19,83.5
"2009-06-03 00:19:30",942107,4.195,122.8,7.703,1.045,7.713,102.3994,5.423,6.508,93.8,0,109.9,13.48,6.19,84.8
"2009-06-03 00:20:00",942108,4.655,122.9,5.629,1.282,7.673,102.3997,5.424,6.472,93.7,0,109.9,13.48,6.19,84.9
"2009-06-03 00:20:30",942109,4.363,124,5.922,1.243,8.17,102.3997,5.424,6.676,94,0,109.9,13.48,6.19,86.0
"2009-06-03 00:21:00",942110,5.306,127.2,6.803,1.152,9.18,102.4017,5.429,6.702,94,0,109.9,13.48,6.20,89.2
"2009-06-03 00:21:30",942111,5.246,121.6,10.6,1.361,9.54,102.4005,5.426,6.687,94,0,109.9,13.48,6.20,83.6
"2009-06-03 00:22:00",942112,4.825,121.3,5.694,1.311,9.23,102.3999,5.425,6.627,93.9,0,109.9,13.48,6.20,83.3
"2009-06-03 00:22:30",942113,4.363,124.8,6.683,1.291,7.581,102.4011,5.428,6.609,93.9,0,109.9,13.48,6.20,86.8
"2009-06-03 00:23:00",942114,3.652,120.5,3.363,0.543,5.85,102.4046,5.436,6.557,93.9,0,109.9,13.48,6.21,82.5
"2009-06-03 00:23:30",942115,4.568,129.6,5.032,1.324,8.11,102.4046,5.436,6.554,93.9,0,109.9,13.48,6.21,91.6
"2009-06-03 00:24:00",942116,4.614,129.3,7.597,1.202,9.13,102.4057,5.439,6.735,94.1,0,109.9,13.48,6.21,91.3
"2009-06-03 00:24:30",942117,5.218,125.5,9.34,1.145,9.8,102.4049,5.437,6.686,94.1,0,109.9,13.48,6.21,87.5
"2009-06-03 00:25:00",942118,4.862,129.7,6.838,1.298,8.61,102.4086,5.447,6.752,94.2,0,109.9,13.48,6.22,91.7
"2009-06-03 00:25:30",942119,3.985,124.1,6.352,0.929,6.784,102.4086,5.447,6.588,94,0,109.9,13.48,6.22,86.1
"2009-06-03 00:26:00",942120,4.841,127.1,5.119,1.063,7.548,102.4089,5.447,6.636,94.1,0,109.9,13.48,6.22,89.1
"2009-06-03 00:26:30",942121,4.611,118.5,5.545,1.352,8.29,102.4086,5.447,6.573,94,0,109.9,13.48,6.22,80.5
"2009-06-03 00:27:00",942122,4.259,128.4,12.06,1.283,7.837,102.4098,5.45,6.659,94.1,0,109.9,13.47,6.22,90.4
"2009-06-03 00:27:30",942123,5.329,137.5,7.222,1.177,9.86,102.4092,5.448,6.751,94.3,0,109.9,13.47,6.22,99.5
"2009-06-03 00:28:00",942124,6.143,138.8,5.919,0.858,9.86,102.4121,5.456,6.676,94.2,0,109.9,13.47,6.23,100.8
"2009-06-03 00:28:30",942125,4.273,125.9,5.453,0.981,7.068,102.4118,5.455,6.611,94.1,0,109.9,13.47,6.23,87.9
"2009-06-03 00:29:00",942126,4.707,124.5,5.89,1.24,7.794,102.4147,5.462,6.6,94.1,0,109.9,13.47,6.23,86.5
"2009-06-03 00:29:30",942127,5.156,130.5,7.245,1.258,8.1,102.4159,5.465,6.645,94.2,0,109.9,13.47,6.24,92.5
"2009-06-03 00:30:00",942128,5.122,131.4,6.054,1.361,8.83,102.417,5.468,6.641,94.1,0,109.9,13.47,6.24,93.4
"2009-06-03 00:30:30",942129,5.544,127.4,6.498,1.167,8.96,102.4162,5.466,6.712,94.3,0,109.9,13.47,6.24,89.4
"2009-06-03 00:31:00",942130,5.791,136.5,5.497,1.097,10.25,102.4185,5.472,6.763,94.3,0,109.9,13.47,6.24,98.5
"2009-06-03 00:31:30",942131,5.289,126.1,5.241,1.287,8,102.4193,5.474,6.6,94.2,0,109.9,13.47,6.25,88.1
"2009-06-03 00:32:00",942132,4.737,131.3,4.417,0.886,7.287,102.4188,5.473,6.626,94.2,0,109.9,13.48,6.24,93.3
"2009-06-03 00:32:30",942133,4.483,128.6,5.908,0.913,7.003,102.4191,5.473,6.635,94.2,0,109.9,13.48,6.24,90.6
"2009-06-03 00:33:00",942134,5.853,134.4,6.847,1.042,9.75,102.4194,5.474,6.642,94.2,0,109.9,13.48,6.25,96.4
"2009-06-03 00:33:30",942135,5.589,137.5,6.038,1.186,9.55,102.4137,5.46,6.673,94.3,0,109.9,13.48,6.23,99.5
"2009-06-03 00:34:00",942136,5.478,137.9,6.36,1.209,10.08,102.4152,5.464,6.735,94.3,0,109.9,13.48,6.23,99.9
"2009-06-03 00:34:30",942137,5.663,137.5,7.174,1.082,9.62,102.4132,5.458,6.706,94.3,0,109.9,13.48,6.23,99.5
"2009-06-03 00:35:00",942138,4.158,131.7,3.466,0.976,6.421,102.4127,5.457,6.521,94.1,0,109.9,13.48,6.23,93.7
"2009-06-03 00:35:30",942139,3.75,123.1,4.982,0.256,6.068,102.4126,5.457,6.541,94.2,0,109.9,13.51,6.23,85.1
"2009-06-03 00:36:00",942140,4.984,133.7,5.534,1.183,9.26,102.4132,5.459,6.668,94.3,0,109.9,13.48,6.23,95.7
"2009-06-03 00:36:30",942141,5.902,141.2,3.572,0.662,11.21,102.407,5.443,6.735,94.4,0,109.9,13.48,6.21,103.2
"2009-06-03 00:37:00",942142,5.277,139.5,7.25,1.206,9.34,102.4002,5.425,6.627,94.3,0,109.9,13.48,6.20,101.5
"2009-06-03 00:37:30",942143,5.208,138,6.032,1.264,8.24,102.3937,5.409,6.65,94.4,0,109.9,13.48,6.18,100.0
"2009-06-03 00:38:00",942144,4.524,137.5,5.947,1.319,7.799,102.3923,5.405,6.585,94.3,0,109.9,13.48,6.18,99.5
"2009-06-03 00:38:30",942145,3.444,131.7,0.53,0.079,5.958,102.39,5.399,6.488,94.2,0,109.9,13.52,6.17,93.7
"2009-06-03 00:39:00",942146,5.522,139.7,5.919,1.252,9.55,102.3909,5.402,6.673,94.4,0,109.9,13.48,6.17,101.7
"2009-06-03 00:39:30",942147,5.859,134.4,5.992,0.942,10.28,102.3904,5.4,6.689,94.4,0,109.9,13.48,6.17,96.4
"2009-06-03 00:40:00",942148,5.382,134.5,7.944,1.002,9.87,102.3906,5.401,6.642,94.4,0,109.9,13.48,6.17,96.5
"2009-06-03 00:40:30",942149,5.216,140.1,5.667,1.237,9.23,102.3904,5.4,6.612,94.4,0,110,13.48,6.17,102.1
"2009-06-03 00:41:00",942150,4.908,138.4,7.149,1.232,7.71,102.3906,5.401,6.569,94.4,0,109.9,13.48,6.17,100.4
"2009-06-03 00:41:30",942151,3.764,126.3,3.87,0.118,5.961,102.3906,5.401,6.442,94.2,0,109.9,13.52,6.17,88.3
"2009-06-03 00:42:00",942152,4.352,128.9,8.44,1.112,8.09,102.3906,5.401,6.644,94.5,0,109.9,13.48,6.17,90.9
"2009-06-03 00:42:30",942153,4.869,136.1,6.591,1.254,9.53,102.3906,5.401,6.697,94.5,0,109.9,13.48,6.17,98.1
"2009-06-03 00:43:00",942154,6.068,136.2,4.551,0.781,10.38,102.3906,5.401,6.659,94.5,0,109.9,13.48,6.17,98.2
"2009-06-03 00:43:30",942155,5.43,138.9,7.104,1.185,9.49,102.3906,5.401,6.621,94.5,0,109.9,13.48,6.17,100.9
"2009-06-03 00:44:00",942156,5.283,128.2,5.791,1.265,8.71,102.3906,5.401,6.624,94.5,0,109.9,13.48,6.17,90.2
"2009-06-03 00:44:30",942157,3.9,121.5,3.482,0.805,6.121,102.3906,5.401,6.422,94.3,0,109.9,13.48,6.17,83.5
"2009-06-03 00:45:00",942158,4.521,132.5,8.72,1.158,8.1,102.3906,5.401,6.577,94.5,0,109.9,13.47,6.17,94.5
"2009-06-03 00:45:30",942159,4.902,138.4,5.481,1.257,9.66,102.3906,5.401,6.652,94.5,0,109.9,13.48,6.17,100.4
"2009-06-03 00:46:00",942160,4.13,134.2,7.425,1.323,8.31,102.3906,5.401,6.593,94.5,0,109.9,13.48,6.17,96.2
"2009-06-03 00:46:30",942161,4.296,135.7,7.2,1.317,8.98,102.3887,5.396,6.678,94.6,0,109.9,13.48,6.17,97.7
"2009-06-03 00:47:00",942162,4.114,138.6,6.177,1.296,7.696,102.3855,5.388,6.5,94.4,0,109.9,13.47,6.16,100.6
"2009-06-03 00:47:30",942163,3.071,133.1,1.914,0.341,5.9,102.3827,5.381,6.439,94.3,0,109.9,13.51,6.15,95.1
"2009-06-03 00:48:00",942164,5.269,139.7,6.015,1.313,7.937,102.3824,5.38,6.47,94.4,0,109.9,13.48,6.15,101.7
"2009-06-03 00:48:30",942165,5.803,145.7,6.949,1.225,9.37,102.3827,5.381,6.582,94.5,0,109.9,13.48,6.15,107.7
"2009-06-03 00:49:00",942166,5.933,146.5,4.756,1.132,10.05,102.3878,5.394,6.698,94.7,0,109.9,13.48,6.16,108.5
"2009-06-03 00:49:30",942167,6.321,148.8,3.547,0.689,11.03,102.3906,5.401,6.675,94.7,0,109.9,13.48,6.17,110.8
"2009-06-03 00:50:00",942168,5.305,145.3,7.866,1.235,8.67,102.3906,5.401,6.608,94.6,0,109.9,13.48,6.17,107.3
"2009-06-03 00:50:30",942169,4.389,142.2,7.082,1.001,7.228,102.3906,5.401,6.479,94.5,0,109.9,13.48,6.17,104.2
"2009-06-03 00:51:00",942170,4.154,134.9,1.787,0.112,5.975,102.3906,5.401,6.449,94.5,0,109.9,13.52,6.17,96.9
"2009-06-03 00:51:30",942171,5.753,144.4,8.17,1.171,9.61,102.3898,5.399,6.626,94.6,0,109.9,13.48,6.17,106.4
"2009-06-03 00:52:00",942172,5.745,143.7,4.035,0.983,10.62,102.3887,5.396,6.7,94.8,0,109.9,13.48,6.17,105.7
"2009-06-03 00:52:30",942173,5.376,147.2,4.408,0.945,10.64,102.3844,5.385,6.703,94.7,0,109.9,13.48,6.16,109.2
"2009-06-03 00:53:00",942174,4.908,141.9,6.276,1.079,9.6,102.3822,5.379,6.588,94.7,0,109.9,13.48,6.15,103.9
"2009-06-03 00:53:30",942175,3.743,133.2,4.294,0.288,5.814,102.3819,5.378,6.404,94.5,0,109.9,13.52,6.15,95.2
"2009-06-03 00:54:00",942176,4.208,138.5,8.11,1.045,6.704,102.3813,5.377,6.397,94.5,0,109.9,13.48,6.15,100.5
"2009-06-03 00:54:30",942177,4.018,137.4,7.213,1.187,7.993,102.3802,5.374,6.604,94.7,0,109.9,13.48,6.14,99.4
"2009-06-03 00:55:00",942178,4.425,140,5.475,1.103,8.42,102.3754,5.362,6.591,94.7,0,109.9,13.48,6.13,102.0
"2009-06-03 00:55:30",942179,5.459,148.9,5.411,1.002,10.43,102.374,5.358,6.671,94.7,0,109.9,13.48,6.13,110.9
"2009-06-03 00:56:00",942180,5.693,144.7,6.218,1.099,9.87,102.3652,5.336,6.602,94.7,0,109.9,13.48,6.11,106.7
"2009-06-03 00:56:30",942181,4.73,138.7,5.262,1.293,8.27,102.3646,5.334,6.508,94.6,0,109.9,13.48,6.11,100.7
"2009-06-03 00:57:00",942182,3.468,132.8,1.299,0.274,5.888,102.3646,5.334,6.378,94.4,0,109.9,13.48,6.11,94.8
"2009-06-03 00:57:30",942183,4.654,138.3,6.6,1.382,8.19,102.3601,5.323,6.534,94.6,0,109.9,13.48,6.09,100.3
"2009-06-03 00:58:00",942184,4.465,137,6.148,1.165,7.78,102.3567,5.314,6.482,94.5,0,109.9,13.48,6.08,99.0
"2009-06-03 00:58:30",942185,5.237,141.3,6.965,1.305,9.59,102.3567,5.314,6.584,94.6,0,109.9,13.48,6.08,103.3
"2009-06-03 00:59:00",942186,5.672,145.2,3.781,0.885,10.98,102.3567,5.314,6.656,94.7,0,109.9,13.48,6.08,107.2
"2009-06-03 00:59:30",942187,4.509,140,6.536,1.248,8.15,102.3567,5.314,6.501,94.5,0,109.9,13.48,6.08,102.0
"2009-06-03 01:00:00",942188,3.415,132.1,0.591,0.465,5.779,102.3567,5.314,6.354,94.4,0,109.9,13.48,6.08,94.1
"2009-06-03 01:00:30",942189,4.264,137.9,6.637,1.222,8.17,102.3567,5.314,6.5,94.5,0,109.9,13.48,6.08,99.9
"2009-06-03 01:01:00",942190,3.221,132.4,0.857,0.056,6.237,102.3567,5.314,6.343,94.4,0,109.9,13.51,6.08,94.4
"2009-06-03 01:01:30",942191,4.093,137.8,7.023,1.21,8.55,102.355,5.31,6.559,94.6,0,109.9,13.48,6.08,99.8
"2009-06-03 01:02:00",942192,5.552,142.2,4.336,0.584,11.19,102.3525,5.303,6.636,94.7,0,109.9,13.48,6.07,104.2
"2009-06-03 01:02:30",942193,5.118,144,5.309,1.092,9.97,102.3508,5.299,6.585,94.6,0,109.9,13.48,6.07,106.0
"2009-06-03 01:03:00",942194,4.288,137,6.302,1.131,7.632,102.3511,5.3,6.425,94.4,0,109.9,13.48,6.07,99.0
"2009-06-03 01:03:30",942195,4.298,133.1,5.722,1.189,6.998,102.3485,5.293,6.31,94.3,0,109.9,13.48,6.06,95.1
"2009-06-03 01:04:00",942196,4.539,137,7.799,1.271,8.25,102.3491,5.295,6.45,94.4,0,109.9,13.48,6.07,99.0
"2009-06-03 01:04:30",942197,4.478,139.4,6.553,1.231,8.39,102.3485,5.293,6.372,94.4,0,109.9,13.48,6.06,101.4
"2009-06-03 01:05:00",942198,5.117,141.9,5.816,1.092,10.42,102.3488,5.294,6.575,94.6,0,109.9,13.48,6.06,103.9
"2009-06-03 01:05:30",942199,5.417,144,4.971,0.921,10.47,102.3483,5.293,6.586,94.6,0,109.9,13.48,6.06,106.0
"2009-06-03 01:06:00",942200,4.784,141.7,6.384,1.256,8.78,102.3485,5.293,6.438,94.4,0,109.9,13.48,6.06,103.7
"2009-06-03 01:06:30",942201,3.784,136.5,4.716,0.828,6.936,102.3499,5.297,6.468,94.4,0,109.9,13.48,6.07,98.5
"2009-06-03 01:07:00",942202,4.46,140.2,7.378,1.183,7.311,102.3494,5.295,6.306,94.2,0,109.9,13.48,6.07,102.2
"2009-06-03 01:07:30",942203,4.193,137.5,5.288,0.892,6.803,102.3499,5.297,6.349,94.3,0,109.9,13.49,6.07,99.5
"2009-06-03 01:08:00",942204,5.766,145.8,5.699,1.149,9.66,102.3491,5.295,6.544,94.5,0,109.9,13.49,6.07,107.8
"2009-06-03 01:08:30",942205,5.932,147.4,5.112,1.027,10.85,102.3474,5.29,6.573,94.5,0,109.9,13.49,6.06,109.4
"2009-06-03 01:09:00",942206,5.881,146.7,5.249,1.046,10.24,102.3465,5.288,6.545,94.4,0,109.9,13.49,6.06,108.7
"2009-06-03 01:09:30",942207,5.336,144.1,5.917,1.236,8.5,102.3443,5.282,6.399,94.3,0,109.9,13.48,6.05,106.1
"2009-06-03 01:10:00",942208,4.463,141.5,6.074,1.148,7.469,102.3446,5.283,6.436,94.3,0,109.9,13.48,6.05,103.5
"2009-06-03 01:10:30",942209,3.708,137.6,1.342,0.079,5.976,102.344,5.282,6.335,94.2,0,109.9,13.52,6.05,99.6
"2009-06-03 01:11:00",942210,4.804,143.9,6.419,1.217,8.38,102.3457,5.286,6.428,94.2,0,109.9,13.49,6.06,105.9
"2009-06-03 01:11:30",942211,6.104,149.3,4.15,0.681,11.05,102.3451,5.285,6.599,94.4,0,109.9,13.49,6.06,111.3
"2009-06-03 01:12:00",942212,5.693,148.4,5.3,1.088,10.58,102.3423,5.277,6.531,94.3,0,109.9,13.49,6.05,110.4
"2009-06-03 01:12:30",942213,5.4,145.9,6.421,1.174,9.44,102.342,5.277,6.499,94.2,0,109.9,13.48,6.05,107.9
"2009-06-03 01:13:00",942214,5.014,144.6,6.56,1.251,8.11,102.3415,5.275,6.45,94.2,0,109.9,13.48,6.05,106.6
"2009-06-03 01:13:30",942215,3.776,137.6,0.996,0.222,5.772,102.3389,5.269,6.274,94,0,109.9,13.49,6.04,99.6
"2009-06-03 01:14:00",942216,4.267,142.6,5.994,1.176,7.96,102.3355,5.26,6.403,94.1,0,109.9,13.49,6.03,104.6
"2009-06-03 01:14:30",942217,5.549,147.9,5.427,1.168,9.69,102.333,5.254,6.458,94.2,0,109.9,13.49,6.02,109.9
"2009-06-03 01:15:00",942218,5.415,145.9,5.674,1.077,10.31,102.3319,5.251,6.531,94.2,0,109.9,13.49,6.02,107.9
"2009-06-03 01:15:30",942219,5.502,147.4,5.223,1.038,10.26,102.3313,5.249,6.526,94.1,0,109.9,13.48,6.02,109.4
"2009-06-03 01:16:00",942220,4.242,140.8,6.677,1.234,8.22,102.3296,5.245,6.439,94,0,109.9,13.48,6.02,102.8
"2009-06-03 01:16:30",942221,3.77,139.2,3.336,0.74,6.068,102.3299,5.246,6.284,93.8,0,109.9,13.48,6.02,101.2
"2009-06-03 01:17:00",942222,4.584,144.6,5.685,1.221,7.753,102.3304,5.247,6.37,93.9,0,109.9,13.48,6.02,106.6
"2009-06-03 01:17:30",942223,5.091,146.8,6.243,1.24,9.18,102.3304,5.247,6.484,94,0,109.9,13.48,6.02,108.8
"2009-06-03 01:18:00",942224,5.55,148.3,5.985,1.202,9.96,102.3313,5.249,6.504,93.9,0,109.9,13.48,6.02,110.3
"2009-06-03 01:18:30",942225,6.04,150.7,3.8,0.87,11.04,102.3313,5.249,6.575,94,0,109.9,13.48,6.02,112.7
"2009-06-03 01:19:00",942226,5.404,146.1,5.966,1.212,8.67,102.3313,5.249,6.426,93.8,0,109.9,13.48,6.02,108.1
"2009-06-03 01:19:30",942227,4.098,140.2,4.234,0.729,6.934,102.3316,5.25,6.387,93.7,0,109.9,13.48,6.02,102.2
"2009-06-03 01:20:00",942228,4.324,141.4,5.041,1.158,6.854,102.3316,5.25,6.332,93.7,0,109.9,13.48,6.02,103.4
"2009-06-03 01:20:30",942229,5.152,148.3,5.832,1.234,9,102.3338,5.256,6.38,93.7,0,109.9,13.48,6.03,110.3
"2009-06-03 01:21:00",942230,5.468,149.4,6.216,1.138,9.78,102.3333,5.254,6.436,93.7,0,109.9,13.48,6.02,111.4
"2009-06-03 01:21:30",942231,5.634,150.2,5.098,1.031,10.87,102.3355,5.26,6.547,93.8,0,109.9,13.48,6.03,112.2
"2009-06-03 01:22:00",942232,5.415,149.4,5.49,1.128,10.13,102.3395,5.27,6.5,93.7,0,109.9,13.49,6.04,111.4
"2009-06-03 01:22:30",942233,4.837,145.5,6.78,1.267,8.19,102.3395,5.27,6.293,93.4,0,109.9,13.48,6.04,107.5
"2009-06-03 01:23:00",942234,3.754,139.9,4.018,0.763,6.566,102.3443,5.282,6.4,93.5,0,109.9,13.49,6.05,101.9
"2009-06-03 01:23:30",942235,4.411,144.3,6.024,1.189,7.744,102.3468,5.289,6.312,93.4,0,109.9,13.49,6.06,106.3
"2009-06-03 01:24:00",942236,4.293,143.2,6.199,1.211,7.854,102.3502,5.298,6.327,93.4,0,109.9,13.49,6.07,105.2
"2009-06-03 01:24:30",942237,5.497,151,5.406,0.917,10.49,102.3494,5.295,6.51,93.5,0,109.9,13.49,6.07,113.0
"2009-06-03 01:25:00",942238,5.088,151.1,5.932,1.165,10.16,102.3522,5.303,6.514,93.5,0,109.9,13.49,6.07,113.1
"2009-06-03 01:25:30",942239,4.36,146,6.657,1.186,8.04,102.355,5.31,6.38,93.3,0,109.9,13.49,6.08,108.0
"2009-06-03 01:26:00",942240,3.763,140.9,5.317,0.819,6.92,102.3562,5.313,6.425,93.3,0,109.9,13.49,6.08,102.9
"2009-06-03 01:26:30",942241,4.008,142.4,5.218,1.187,7.147,102.3567,5.314,6.346,93.2,0,109.9,13.49,6.08,104.4
"2009-06-03 01:27:00",942242,3.463,138.4,2.48,0.613,6.981,102.3564,5.313,6.448,93.3,0,109.9,13.49,6.08,100.4
"2009-06-03 01:27:30",942243,5.293,146.3,6.778,1.205,9.55,102.3567,5.314,6.43,93.2,0,109.9,13.49,6.08,108.3
"2009-06-03 01:28:00",942244,5.83,148.5,5.084,0.967,10.95,102.3567,5.314,6.579,93.3,0,109.9,13.49,6.08,110.5
"2009-06-03 01:28:30",942245,5.291,148.2,6.91,1.182,9.6,102.3567,5.314,6.516,93.2,0,109.9,13.49,6.08,110.2
"2009-06-03 01:29:00",942246,4.852,149.2,5.885,1.255,9.3,102.3567,5.314,6.494,93.1,0,109.9,13.49,6.08,111.2
"2009-06-03 01:29:30",942247,3.996,141.5,4.774,0.874,6.763,102.3567,5.314,6.4,93,0,109.9,13.49,6.08,103.5
"2009-06-03 01:30:00",942248,4.554,145,5.372,1.172,8.4,102.3567,5.314,6.466,93,0,109.9,13.49,6.08,107.0
"2009-06-03 01:30:30",942249,4.24,141.5,5.602,1.093,7.295,102.3573,5.316,6.391,92.9,0,109.9,13.49,6.09,103.5
"2009-06-03 01:31:00",942250,5.819,153.2,5.616,1.062,10.36,102.3607,5.324,6.605,93,0,109.9,13.49,6.10,115.2
"2009-06-03 01:31:30",942251,5.567,152.6,5.885,1.231,9.89,102.3629,5.33,6.533,92.9,0,109.9,13.49,6.10,114.6
"2009-06-03 01:32:00",942252,5.24,150.6,6.86,1.23,8.9,102.3646,5.334,6.518,92.9,0,109.9,13.48,6.11,112.6
"2009-06-03 01:32:30",942253,4.951,148.8,6.782,1.197,7.654,102.3652,5.336,6.489,92.8,0,109.9,13.48,6.11,110.8
"2009-06-03 01:33:00",942254,4.946,150.3,6.68,1.185,7.626,102.3652,5.336,6.489,92.7,0,109.9,13.48,6.11,112.3
"2009-06-03 01:33:30",942255,4.197,147,4.02,0.868,6.872,102.3672,5.341,6.453,92.7,0,109.9,13.48,6.11,109.0
"2009-06-03 01:34:00",942256,4.769,150.6,6.87,1.278,8.34,102.3723,5.354,6.431,92.6,0,109.9,13.48,6.12,112.6
"2009-06-03 01:34:30",942257,5.351,152.9,6.257,1.236,9.53,102.3765,5.365,6.585,92.7,0,109.9,13.48,6.14,114.9
"2009-06-03 01:35:00",942258,5.694,153.9,6.049,1.086,10,102.3802,5.374,6.557,92.7,0,109.9,13.48,6.14,115.9
"2009-06-03 01:35:30",942259,4.882,149.8,6.588,1.235,8.29,102.3816,5.378,6.439,92.5,0,109.9,13.48,6.15,111.8
"2009-06-03 01:36:00",942260,4.394,147.9,5.426,1.109,7.796,102.3816,5.378,6.514,92.5,0,109.9,13.48,6.15,109.9
"2009-06-03 01:36:30",942261,3.999,146.2,4.804,0.887,7.074,102.3816,5.378,6.489,92.5,0,109.9,13.48,6.15,108.2
"2009-06-03 01:37:00",942262,4.962,150.4,6.544,1.25,8.63,102.3816,5.378,6.48,92.4,0,109.9,13.48,6.15,112.4
"2009-06-03 01:37:30",942263,4.387,148.5,6.502,1.211,8.53,102.3816,5.378,6.557,92.5,0,109.9,13.49,6.15,110.5
"2009-06-03 01:38:00",942264,4.877,151.2,6.317,1.27,9.56,102.3833,5.382,6.637,92.5,0,109.9,13.49,6.15,113.2
"2009-06-03 01:38:30",942265,5.054,151.9,6.324,1.18,9.79,102.3872,5.392,6.632,92.5,0,109.9,13.49,6.16,113.9
"2009-06-03 01:39:00",942266,4.636,150.7,6.733,1.268,8.51,102.3895,5.398,6.516,92.3,0,109.9,13.49,6.17,112.7
"2009-06-03 01:39:30",942267,4.356,149,5.845,1.193,7.92,102.3904,5.4,6.531,92.3,0,109.9,13.49,6.17,111.0
"2009-06-03 01:40:00",942268,4.626,150.8,6.526,1.254,7.992,102.3909,5.402,6.497,92.2,0,109.9,13.49,6.17,112.8
"2009-06-03 01:40:30",942269,3.703,148.6,4.573,0.799,7.49,102.3912,5.402,6.541,92.2,0,109.9,13.49,6.17,110.6
"2009-06-03 01:41:00",942270,5.183,155.9,5.99,1.158,8.9,102.3921,5.404,6.51,92.1,0,109.9,13.49,6.18,117.9
"2009-06-03 01:41:30",942271,5.311,158.6,6.136,1.205,9.81,102.3957,5.414,6.626,92.2,0,109.9,13.49,6.18,120.6
"2009-06-03 01:42:00",942272,5.255,155.3,6.049,1.261,9.13,102.3957,5.414,6.557,92.1,0,109.9,13.49,6.18,117.3
"2009-06-03 01:42:30",942273,4.604,151.8,4.33,1.185,8.35,102.398,5.42,6.579,92.1,0,109.9,13.49,6.19,113.8
"2009-06-03 01:43:00",942274,4.16,149.6,5.913,1.158,7.67,102.3969,5.417,6.575,92.1,0,109.9,13.49,6.19,111.6
"2009-06-03 01:43:30",942275,4.84,150.2,6.376,1.281,8.23,102.3969,5.417,6.6,92.1,0,109.9,13.49,6.19,112.2
"2009-06-03 01:44:00",942276,3.585,143,1.648,0.038,6.479,102.3969,5.417,6.49,91.9,0,109.9,13.5,6.19,105.0
"2009-06-03 01:44:30",942277,5.078,152.4,6.82,1.181,9.42,102.3991,5.422,6.613,92,0,109.9,13.49,6.19,114.4
"2009-06-03 01:45:00",942278,4.832,152.2,6.437,1.273,8.77,102.3988,5.422,6.653,92,0,109.9,13.49,6.19,114.2
"2009-06-03 01:45:30",942279,4.371,150.4,5.828,1.162,7.981,102.4,5.425,6.628,92,0,109.9,13.49,6.20,112.4
"2009-06-03 01:46:00",942280,4.514,150.8,6.284,1.27,7.999,102.4022,5.43,6.604,91.9,0,109.9,13.49,6.20,112.8
"2009-06-03 01:46:30",942281,4.495,149.1,7.068,1.292,8.2,102.4056,5.439,6.485,91.8,0,109.9,13.49,6.21,111.1
"2009-06-03 01:47:00",942282,4.62,149.5,7.475,1.269,8.78,102.4076,5.444,6.624,91.9,0,109.9,13.49,6.22,111.5
"2009-06-03 01:47:30",942283,4.727,150.7,6.586,1.215,9.19,102.4076,5.444,6.591,91.8,0,109.9,13.5,6.22,112.7
"2009-06-03 01:48:00",942284,4.844,156.1,6.427,1.212,9.49,102.4076,5.444,6.707,91.9,0,109.9,13.5,6.22,118.1
"2009-06-03 01:48:30",942285,5.119,159.3,6.689,1.198,10,102.4076,5.444,6.672,91.8,0,109.9,13.49,6.22,121.3
"2009-06-03 01:49:00",942286,4.66,155,6.94,1.31,8.68,102.4079,5.445,6.608,91.8,0,109.9,13.48,6.22,117.0
"2009-06-03 01:49:30",942287,3.514,150.7,2.674,0.231,6.405,102.4076,5.444,6.583,91.7,0,109.9,13.52,6.22,112.7
"2009-06-03 01:50:00",942288,4.636,156.3,6.836,1.271,7.901,102.4087,5.447,6.526,91.6,0,109.9,13.48,6.22,118.3
"2009-06-03 01:50:30",942289,3.782,155.5,4.699,0.845,6.946,102.4101,5.451,6.635,91.7,0,109.9,13.49,6.22,117.5